Weather History for 42348 - July, 2013

Change the Weather History Date:

Monday, July 1, 2013

  Actual Average Record
Temperature  
Mean Temperature 90 °F -  
Max Temperature 102 °F - - ()
Min Temperature 78 °F - - ()
Cooling Degree Days 25    
Growing Degree Days 40 (Base 50)    
Moisture  
Dew Point 72 °F    
Average Humidity 55    
Maximum Humidity 84    
Minimum Humidity 27    
Precipitation  
Precipitation 0.31 in - - ()
Sea Level Pressure  
Sea Level Pressure 29.50 in    
Wind  
Wind Speed 8 mph ()    
Max Wind Speed 24 mph    
Max Gust Speed 24 mph    
Visibility 2.0 miles    
Events Rain , Thunderstorm    
T = Trace of Precipitation, MM = Missing Value Source: Averaged Metar Reports

Daily Weather History Graph

Daily Weather History Graph

Search for Another Location

Airport or City:

Trip Planner

Search our weather history database for the weather conditions in past years. The results will help you decide how hot, cold, wet, or windy it might be!

Date:

Astronomy

Jul. 01, 2013 Rise Set
Actual Time 5:36 AM IST 7:24 PM IST
Civil Twilight 5:10 AM IST 7:50 PM IST
Nautical Twilight 4:38 AM IST 8:22 PM IST
Astronomical Twilight 4:05 AM IST 8:55 PM IST
Moon No Moon Rise 1:32 PM IST (7/1)
Length of Visible Light 14h 40m
Length of Day
13h 48m
Last Quarter, 39% of the Moon is Illuminated
Jul 1
Last Quarter
Jul 8
New
Jul 16
First Quarter
Jul 22
Full
Jul 29
Last Quarter

Hourly Weather History & Observations

Time (IST) Temp. Heat Index Dew Point Humidity Pressure Visibility Wind Dir Wind Speed Gust Speed Precip Events Conditions
12:00 AM 89.6 °F 96.2 °F 71.6 °F 55% 29.59 in 1.9 mi West 8.1 mph - N/A   Haze
1:00 AM 87.8 °F 93.8 °F 71.6 °F 58% 29.56 in 1.9 mi West 8.1 mph - N/A   Haze
2:00 AM 91.4 °F 98.4 °F 71.6 °F 52% 29.56 in 1.9 mi WNW 8.1 mph - N/A   Haze
2:30 AM 87 °F - 70 °F 47% 29.46 in 1 mi West 9.2 mph - -   Haze
4:00 AM 86.0 °F 91.8 °F 71.6 °F 62% 29.50 in 1.9 mi WNW 6.9 mph - N/A   Haze
5:00 AM 86.0 °F 91.8 °F 71.6 °F 62% 29.53 in 1.9 mi WNW 6.9 mph - N/A   Haze
5:30 AM 86 °F - 71 °F 53% 29.45 in 1 mi NW 4.6 mph - -   Haze
6:00 AM 86.0 °F 91.8 °F 71.6 °F 62% 29.53 in 1.9 mi NW 5.8 mph - N/A   Haze
7:00 AM 86.0 °F 93.4 °F 73.4 °F 66% 29.56 in 2.5 mi WNW 9.2 mph - N/A   Haze
8:00 AM 87.8 °F 95.6 °F 73.4 °F 62% 29.56 in 2.5 mi WNW 9.2 mph - N/A   Haze
8:30 AM 90 °F - 73 °F 48% 29.49 in 2 mi WNW 9.2 mph - -   Haze
9:00 AM 89.6 °F 98.2 °F 73.4 °F 59% 29.59 in 2.5 mi WNW 12.7 mph - N/A   Haze
10:00 AM 91.4 °F 100.1 °F 73.4 °F 55% 29.56 in 2.5 mi NW 12.7 mph 24.2 mph N/A   Haze
11:00 AM 95.0 °F 104.5 °F 73.4 °F 49% 29.56 in 2.5 mi NW 11.5 mph 23.0 mph N/A   Haze
11:30 AM 96 °F - 73 °F 38% 29.44 in 2 mi NW 11.5 mph - -   Haze
1:00 PM 96.8 °F 105.1 °F 71.6 °F 44% 29.50 in 2.5 mi Variable 10.4 mph - N/A   Haze
2:00 PM 98.6 °F 105.5 °F 69.8 °F 39% 29.50 in 2.5 mi NW 8.1 mph - N/A   Haze
2:30 PM 100 °F - 69 °F 27% 29.37 in 2 mi WNW 12.7 mph - -   Haze
3:00 PM 100.4 °F 107.8 °F 69.8 °F 37% 29.47 in 2.5 mi WNW 8.1 mph - N/A   Haze
4:00 PM 100.4 °F 107.8 °F 69.8 °F 37% 29.44 in 2.5 mi WNW 9.2 mph - N/A   Haze
5:00 PM 98.6 °F 107.7 °F 71.6 °F 42% 29.44 in 2.5 mi WNW 10.4 mph - N/A   Haze
5:30 PM 85 °F - 70 °F 52% 29.40 in 1 mi ENE 24.2 mph - - Rain , Thunderstorm Thunderstorms and Rain
7:00 PM 78.8 °F - 73.4 °F 83% 29.50 in 1.6 mi ENE 6.9 mph - N/A Rain , Thunderstorm Thunderstorms and Rain
8:00 PM 80.6 °F 86.2 °F 75.2 °F 84% 29.50 in 1.6 mi SE 4.6 mph - N/A Thunderstorm Thunderstorm
8:30 PM 80 °F - 76 °F 83% 29.43 in 1 mi SSE 2.3 mph - - Thunderstorm Thunderstorm
9:00 PM 82.4 °F 89.5 °F 75.2 °F 79% 29.47 in 1.6 mi Calm Calm - N/A   Haze
10:00 PM 86.0 °F 91.8 °F 71.6 °F 62% 29.50 in 1.6 mi Variable 9.2 mph 20.7 mph N/A   Haze